Back to catalog

STARLINK-35366

AliveCommunicationsVLEO
NORAD 66512·PAYLOAD·🇺🇸 United States

Launched Nov 15, 2025 from Cape Canaveral Space Force Station

Loading…

Next Passes (next 24 hours)

TLE

FreshSource: CelesTrak SupGP

Epoch: Sep 14, 2026, 14:49 UTC

1 66512C 25263AD  26257.61784722 -.00027112  00000+0 -98223-3 0  2575
2 66512  43.0043   3.7816 0001831 274.0940  39.5102 15.27583369    10

Track STARLINK-35366 in real time with AllMySat

Download on the App Store